COSMOS 1275 DEB, 12655

Orbit data source: Space-Track

COSMOS 1275 DEB, 12655 is space debris in LEO originally from a launch on Thu, 04 Jun 1981 UTC launched from the Plesetsk Missile And Space Complex (PKMTR). Debris objects in space refer to the collection of defunct objects orbiting the Earth. Examples of debris include non-operational satellites, rocket bodies, and fragments generated from explosions, collisions, or faulty payload assembly.

Loading next visibility...
Identifier
12655, 1981-053K
Orbit
LEO
Country
Flag of CISCIS
Related business
Manufacturer
Unknown
Mission
Spacecraft
Bus & Motor
Unknown
Mass
Unknown
Launch date (UTC)
1981-06-04 (44 years ago)
Launch vehicle
Unknown
Launch site
Plesetsk Missile And Space Complex (PKMTR)
Object type
Payload
Rocket body
Debris
Shape & HBR
Unknown shape, 0.2 m
Radar Cross Section
Medium (>0.1 m² and <1 m²)

Expand to show TLE details & history
Last TLE update: 13 hours ago

TLE from 13 hours ago
0 COSMOS 1275 DEB
1 12655U 81053K   25289.13260722  .00000157  00000-0  14348-3 0  9991
2 12655  82.9598  52.7129 0033840  33.3294 145.1650 13.76772216219815
Epoch: 2025-10-16T03:10Z
TLE epoch observation values (Epoch: 2025-10-16T03:10:57.263Z)
Latitude
1.16753°
Longitude
159.93413°
Altitude
998.573 km
Speed
7.342 km/s
True Right ascension
15h 30m 16s
True Declination
1° 09' 39"
Sunlit
Object was in daylight at epoch
Visualization orbit readout
Latitude
Unknown
Longitude
Unknown
Altitude
Unknown
Speed
Unknown
Apparent Right ascension
Unknown
Apparent Declination
Unknown
Sunlit
N/A
Visualization observer readout
Local Sidereal Time
10:37:53
Azimuth
Unknown
Elevation
Unknown
Doppler factor
Unknown
Orbital elements
Apogee altitude
997.378 km
Perigee altitude
947.629 km
Semi-major axis
7,350.64 km
Eccentricity
0.00338
Inclination
82.9598°
RAAN
52.7129°
Arg. of periapsis
33.3294°
True anomaly
145.38574°
Mean anomaly
145.165°
Eccentric anomaly
145.27545°
Mean motion
3.44394 °/min
Orbital period
104.53 mins
BSTAR
0.00014348
Loading maneuver chart data...
Computing Atmospheric mass density...

Documentation

Showing up to 5 results
|